Content
SEND FEEDBACK

Daily
Averages
Monthly
Summary
Germany

AUGSBURG, GERMANY


Home > Europe > Germany
Elevation: 1519 feet     Latitude: 48 26N     Longitude: 010 56E

WEATHER
 
SELECT A DAY
Number of Records: 273,117;   Date Range: 7/1/96 - 8/31/14
 
SHARE

PRINT THIS DATA

[ ← Previous Day ]
WEATHER ALMANAC - FEBRUARY 13, 2013
[ Next Day → ]
[ °C ]   °F
Weather ElementAverageHighLow
Temperature22.5 °F30.2 °F (12:50 pm)10.4 °F (9:20 pm)
Dewpoint18.5 °F24.8 °F (12:20 am)8.6 °F (9:20 pm)
Humidity84.3 %100 % (12:20 am)55 % (2:00 pm)
Barometer30.15 in30.40 in (11:00 pm)29.95 in (12:20 am)
Wind Speed3.3 mph6.7 mph (1:00 am)
Weather ElementAverage
Visibility2.6 mi
Wind DirectionS (183.5 °)

Weather ElementTotal
Precipitation---
Heating Degree Days44.7 (Base 65)
Averaged from 66 records on February 13, 2013
WEATHER CONDITIONS BREAKOUT
WIND DIRECTION BREAKOUT
WEATHER BY HOUR - FEBRUARY 13, 2013
[ °C ]   °F
Local TimeTemperatureDewpointHumidityBarometerVisibilityWind DirectionWind SpeedGust SpeedPrecipitationEventsConditions
12:20 AM24.8 °F24.8 °F100 %29.95 in1.3 miWest (280°)5.8 mph
12:50 AM24.8 °F23.0 °F93 %29.95 in1.3 miWest (280°)5.8 mph
1:00 AM25.0 °F24.0 °F93 %30.06 in2.0 miWest (280°)6.7 mphSnowSnow
1:20 AM24.8 °F23.0 °F93 %29.98 in1.3 miWNW (290°)5.8 mphSnowLight Snow
1:50 AM24.8 °F23.0 °F93 %29.98 in1.3 miWest (280°)4.6 mphSnowLight Snow
2:00 AM25.0 °F23.0 °F89 %30.08 in2.0 miWest (280°)4.5 mphSnowLight Snow
2:20 AM24.8 °F23.0 °F93 %29.98 in1.3 miWest (280°)3.5 mphSnowLight Snow
2:50 AM24.8 °F23.0 °F93 %29.98 in1.3 miWest (280°)4.6 mphSnowLight Snow
3:00 AM24.0 °F22.0 °F90 %30.09 in2.0 miWest (280°)4.5 mphSnowSnow
3:20 AM24.8 °F23.0 °F93 %29.98 in1.3 miWNW (290°)4.6 mphSnowLight Snow
3:50 AM24.8 °F21.2 °F86 %30.01 in1.3 miWNW (300°)4.6 mphSnowLight Snow
4:20 AM24.8 °F21.2 °F86 %30.01 in1.3 miNW (310°)4.6 mphSnowLight Snow
4:50 AM23.0 °F21.2 °F93 %30.01 in1.3 miWNW (290°)4.6 mphSnowLight Snow
5:00 AM24.0 °F22.0 °F86 %30.13 in2.0 miWNW (290°)4.5 mphSnowSnow
5:20 AM23.0 °F21.2 °F93 %30.04 in1.3 miWNW (290°)3.5 mph
5:50 AM23.0 °F21.2 °F93 %30.04 in1.3 miWNW (290°)2.3 mph
6:00 AM23.0 °F21.0 °F89 %30.14 in3.0 miWest (280°)2.2 mphIce Crystals
6:20 AM23.0 °F21.2 °F93 %30.04 in3.1 miVariable1.2 mphSnowLight Snow
6:50 AM23.0 °F21.2 °F93 %30.04 in2.8 miWest (280°)2.3 mphSnowLight Snow
7:00 AM24.0 °F22.0 °F86 %30.16 in2.0 miWest (280°)2.2 mphSnowLight Snow
7:20 AM23.0 °F21.2 °F93 %30.04 inWest (280°)3.5 mphSnowLight Snow
7:50 AM23.0 °F21.2 °F93 %30.06 inWNW (290°)3.5 mphSnowLight Snow
8:00 AM23.0 °F22.0 °F92 %30.18 in2.0 miWNW (290°)4.5 mphSnowLight Snow
8:20 AM23.0 °F23.0 °F100 %30.06 inWNW (300°)3.5 mphSnowLight Snow
8:50 AM23.0 °F21.2 °F93 %30.09 in2.8 miWest (280°)4.6 mphSnowLight Snow
9:20 AM24.8 °F21.2 °F86 %30.09 in2.8 miWest (280°)3.5 mphSnowLight Snow
9:50 AM24.8 °F21.2 °F86 %30.12 in3.7 miWest (280°)4.6 mphSnowLight Snow
10:20 AM24.8 °F21.2 °F86 %30.12 in3.7 miWest (270°)3.5 mphSnowLight Snow
10:50 AM26.6 °F19.4 °F74 %30.12 in3.7 miWest (270°)2.3 mphSnowLight Snow
11:00 AM25.0 °F20.0 °F76 %30.24 in4.0 miWest (260°)4.5 mphSnowLight Snow
11:20 AM28.4 °F21.2 °F74 %30.15 in5.0 miVariable1.2 mphSnowLight Snow
11:50 AM28.4 °F19.4 °F69 %30.15 in5.6 miNW (320°)3.5 mphMostly Cloudy
12:00 PM26.0 °F20.0 °F71 %30.25 in4.0 miNNW (340°)4.5 mphSnowLight Snow
12:20 PM26.6 °F17.6 °F69 %30.15 in5.6 miNorth (350°)4.6 mphMostly Cloudy
12:50 PM30.2 °F17.6 °F60 %30.15 in5.6 miVariable2.3 mphMostly Cloudy
1:00 PM27.0 °F18.0 °F57 %30.24 in4.0 miNW (310°)2.2 mphSnowLight Snow
1:20 PM28.4 °F17.6 °F64 %30.15 in5.6 miNorth (350°)3.5 mphScattered Clouds
1:50 PM30.2 °F19.4 °F64 %30.15 in5.6 miNorth (10°)3.5 mphScattered Clouds
2:00 PM28.0 °F18.0 °F55 %30.25 in4.0 miNorth2.2 mphHaze
2:20 PM28.4 °F17.6 °F64 %30.15 in6.2 miNE (40°)4.6 mphScattered Clouds
2:50 PM30.2 °F17.6 °F60 %30.15 in4.3 miNNE (30°)4.6 mphScattered Clouds
3:00 PM28.0 °F19.0 °F58 %30.25 in4.0 miNNE (20°)4.5 mphHaze
3:20 PM26.6 °F15.8 °F64 %30.18 in4.3 miNNE (30°)4.6 mphScattered Clouds
3:50 PM28.4 °F17.6 °F64 %30.18 in5.0 miNorth (10°)3.5 mphPartly Cloudy
4:20 PM26.6 °F17.6 °F69 %30.18 in5.0 miNorth (360°)4.6 mphPartly Cloudy
4:50 PM26.6 °F15.8 °F64 %30.18 in4.3 miVariable2.3 mphPartly Cloudy
5:00 PM26.0 °F19.0 °F67 %30.29 in4.0 miNW (320°)2.2 mphHaze
5:20 PM24.8 °F17.6 °F74 %30.21 inNNW (330°)2.3 mphClear
5:50 PM21.2 °F19.4 °F93 %30.21 inNNE (30°)3.5 mphClear
6:00 PM20.0 °F19.0 °F92 %30.33 in2.0 miNNE (20°)2.2 mphMist
6:20 PM21.2 °F19.4 °F93 %30.21 in5.0 miWest (270°)1.2 mphPartly Cloudy
6:50 PM17.6 °F17.6 °F100 %30.21 in4.3 miVariable1.2 mphFogPatches of Fog
7:00 PM18.0 °F17.0 °F93 %30.36 in1.0 miESE (110°)2.2 mphFogFog
7:20 PM15.8 °F14.0 °F93 %30.24 in3.7 miSSE (150°)1.2 mphFogPatches of Fog
7:50 PM14.0 °F14.0 °F100 %30.24 in0.1 miVariable1.2 mphFogLight Freezing Fog
8:00 PM14.0 °F13.0 °F92 %30.38 in0.0 miEast (80°)2.2 mphFogFog
8:20 PM12.2 °F10.4 °F92 %30.24 inEast (100°)2.3 mphFogLight Freezing Fog
8:50 PM14.0 °F12.2 °F93 %30.24 in0.0 miVariable1.2 mphFogLight Freezing Fog
9:00 PM12.0 °F11.0 °F93 %30.39 in0.0 miNE (50°)2.2 mphFogFog
9:20 PM10.4 °F8.6 °F92 %30.24 in0.0 miEast (90°)4.6 mph
9:50 PM10.4 °F8.6 °F92 %30.24 in0.5 miVariable1.2 mph
10:20 PM10.4 °F10.4 °F100 %30.24 in0.1 miVariable1.2 mph
10:50 PM12.2 °F12.2 °F100 %30.24 in0.5 miVariable1.2 mph
11:00 PM14.0 °F13.0 °F91 %30.40 in0.0 miNorth (10°)2.2 mphFogFog
11:20 PM12.2 °F10.4 °F92 %30.24 in1.1 miSSE (150°)2.3 mph
11:50 PM12.2 °F10.4 °F92 %30.24 in0.1 miVariable2.3 mph
Hourly data recorded from EDMA, located miles away from Augsburg, Germany







STORIES FROM OUR PARTNERS